Regional Weather Roundup
Issued by NWS Raleigh/Durham, NC

Home | Current Version | Previous Version | Text Only | Print | Product List | Glossary On
Versions: 1 2 3 4 5 6 7 8 9 10 11 12 13 14 15 16 17 18 19 20 21 22 23 24 25 26 27 28 29 30 31 32 33 34 35 36 37 38 39 40 41 42 43 44 45 46 47 48 49 50
000
ASUS42 KRAH 041010
RWRRAH
NORTH CAROLINA WEATHER ROUNDUP
NATIONAL WEATHER SERVICE RALEIGH NC
600 AM EDT SAT JUL 04 2015

NOTE: "FAIR" INDICATES FEW OR NO CLOUDS BELOW 12,000 FEET WITH NO
SIGNIFICANT WEATHER AND/OR OBSTRUCTIONS TO VISIBILITY.

NCZ001-053-055-056-065-067-041100-
WESTERN NORTH CAROLINA

CITY           SKY/WX    TMP DP  RH WIND       PRES   REMARKS
ASHEVILLE      LGT RAIN  65  63  93 CALM      30.05R
JEFFERSON      CLOUDY    65  61  87 W3        30.04R
MORGANTON      MOCLDY    67  65  91 SW5       30.02R
HICKORY        MOCLDY    67  65  93 CALM      29.96R
RUTHERFORDTON  NOT AVBL
MOUNT AIRY     MOCLDY    70  68  93 CALM      29.97R FOG
BOONE          MOCLDY    64  59  86 CALM      30.05R
$$

NCZ021-022-025-041-071-084-088-041100-
CENTRAL NORTH CAROLINA

CITY           SKY/WX    TMP DP  RH WIND       PRES   REMARKS
CHARLOTTE      CLOUDY    74  65  73 SW12      29.98R
GREENSBORO     MOCLDY    68  67  96 SW8       29.94R
WINSTON-SALEM  PTCLDY    69  66  90 VRB3      29.96R
RALEIGH-DURHAM PTCLDY    70  68  93 SW6       29.94R
FORT BRAGG     CLEAR     73  68  84 SW10      29.94R
FAYETTEVILLE   CLEAR     74  69  85 SW10      29.95R
BURLINGTON     PTCLDY    70  68  93 SW6       29.93R
LAURINBURG     CLEAR     74  69  85 SW9       29.97R HAZE
$$

NCZ011-015-027-028-043-044-047-080-103-041100-
NORTHEASTERN NORTH CAROLINA

CITY           SKY/WX    TMP DP  RH WIND       PRES   REMARKS
ROCKY MT-WILSO PTCLDY    71  69  93 SW5       29.93R
GREENVILLE     PTCLDY    73  72  94 SW8       29.95R
WASHINGTON     CLEAR     73  70  91 SW7       29.93R
ELIZABETH CITY MOCLDY    74  71  91 SW13G22   29.88R
MANTEO         MOCLDY    74  72  91 W16       29.89R
CAPE HATTERAS  PTCLDY    76  69  79 W14G24    29.92R
$$

NCZ078-087-090-091-093-098-101-041100-
SOUTHEASTERN NORTH CAROLINA

CITY           SKY/WX    TMP DP  RH WIND       PRES   REMARKS
LUMBERTON      PTCLDY    76  69  79 SW12      29.97R
GOLDSBORO      CLEAR     73  71  92 SW5       29.93R
KINSTON        CLEAR     73  70  89 SW7       29.95R
KENANSVILLE    PTCLDY    71  69  92 SW3       29.97R
NEW BERN       CLEAR     73  69  87 SW9       29.96R
CHERRY POINT   PTCLDY    76  69  79 SW15      29.96R
BEAUFORT       CLOUDY    79  73  82 W15G28    29.96R
JACKSONVILLE   NOT AVBL
WILMINGTON     CLEAR     78  71  79 SW14      29.97R
$$



USA.gov is the U.S. government's official web portal to all federal, state and local government web resources and services.